Simultaneous Nadir Overpasses (SNOs) Predictions

Prediction of SNOs between METOP-B and NOAA-19 Satellite Orbit:

Table of predicted SNOs for the next 14.0 days since TLE Epoch: 12/8/2017
Index Date (METOP-B) Time (METOP-B) Lat,Lon (METOP-B) SZA (METOP-B ) Date (NOAA-19) Time (NOAA-19) Lat,Lon (NOAA-19) SZA (NOAA-19 ) Distance(km) Time Diff (sec)
1 12/15/2017 01:26:11 -77.92, -13.64 78.74 12/15/2017 01:24:59 -77.96, -14.95 78.75 30.79 72
2 12/15/2017 02:16:54 77.80, 153.09 101.13 12/15/2017 02:16:00 77.82, 153.09 101.13 1.50 54
3 12/15/2017 03:07:36 -77.79, -39.67 78.90 12/15/2017 03:06:56 -77.79, -39.52 78.89 3.61 40
4 12/15/2017 03:58:16 77.79, 127.67 101.11 12/15/2017 03:58:01 77.80, 127.67 101.13 1.80 15
5 12/15/2017 04:48:57 -77.81, -64.89 78.87 12/15/2017 04:48:57 -77.78, -64.95 78.90 3.56 0
6 12/15/2017 05:39:38 77.77, 102.25 101.10 12/15/2017 05:40:02 77.79, 102.24 101.12 2.11 24
7 12/15/2017 06:30:19 -77.79, -90.31 78.88 12/15/2017 06:30:58 -77.77, -90.37 78.90 3.40 39
8 12/15/2017 07:21:00 77.75, 76.83 101.08 12/15/2017 07:22:03 77.77, 76.81 101.11 2.43 63
9 12/15/2017 08:11:44 -77.65,-116.33 79.04 12/15/2017 08:12:57 -77.67,-115.39 78.98 22.53 73




NCC Satellite Simultaneous Nadir Overpasses (SNOs) Prediction Service
